Simultaneous Nadir Overpasses (SNOs) Predictions

Prediction of SNOs between AURA and NPP Satellite Orbit:

Table of predicted SNOs for the next 14.0 days since TLE Epoch: 8/14/2020
Index Date (AURA) Time (AURA) Lat,Lon (AURA) SZA (AURA ) Date (NPP) Time (NPP) Lat,Lon (NPP) SZA (NPP ) Distance(km) Time Diff (sec)
1 08/15/2020 11:25:09 79.36, -95.40 79.21 08/15/2020 11:24:41 79.35, -95.49 79.25 2.22 28
2 08/15/2020 12:14:29 -79.63, 74.11 101.19 08/15/2020 12:15:18 -79.63, 74.13 101.23 0.34 49
3 08/18/2020 03:41:35 79.49, 21.38 79.83 08/18/2020 03:41:33 79.50, 21.46 79.81 1.65 2
4 08/18/2020 04:29:51 -81.50,-147.48 104.14 08/18/2020 04:31:05 -81.16,-146.97 104.31 38.92 74
5 08/20/2020 19:08:41 -79.36, -31.26 99.16 08/20/2020 19:07:48 -79.37, -31.13 99.15 2.77 53
6 08/20/2020 19:58:02 79.54, 137.63 80.59 08/20/2020 19:58:27 79.54, 137.60 80.57 0.51 25
7 08/23/2020 11:25:09 -79.42, 84.97 98.38 08/23/2020 11:24:43 -79.42, 85.02 98.37 0.97 26
8 08/23/2020 12:14:30 79.59,-106.15 81.37 08/23/2020 12:15:22 79.59,-106.25 81.35 2.28 52
9 08/26/2020 02:54:19 73.40, 11.28 89.64 08/26/2020 02:53:06 73.69, 9.50 89.93 64.49 73
10 08/26/2020 03:41:37 -79.46,-158.81 97.58 08/26/2020 03:41:38 -79.46,-158.83 97.57 0.46 1
11 08/28/2020 19:08:42 79.34, 148.59 83.49 08/28/2020 19:07:52 79.35, 148.70 83.51 2.38 50
